VA3PPY Weather Reports


time (UTC)temp
C
wind
direction
speed
KPH
gust
KPH
rain 1hr
cm
rain 24hr
cm
rain mn
cm
humidity
%
barometer
mb
20260831071504 20 164 0.0 3.2 0.05 2.51 0.23 96 1015.2
20260831070005 20 164 0.0 1.6 0.08 2.51 0.23 96 1015.3
20260831064505 19 164 0.0 6.4 0.13 2.51 0.23 96 1015.3
20260831063005 19 164 0.0 1.6 0.20 2.49 0.20 95 1015.3
20260831061505 19 164 0.0 6.4 0.18 2.46 0.18 95 1015.4
20260831060004 19 138 1.6 11.3 0.15 2.44 0.15 95 1015.6
20260831054505 18 169 0.0 3.2 0.10 2.39 0.10 95 1015.7
20260831053008 18 169 0.0 4.8 0.00 2.29 0.00 94 1015.7
20260831051510 18 169 0.0 8.0 0.00 2.29 0.00 94 1015.6
20260831050005 18 188 0.0 9.7 0.00 2.29 0.00 94 1015.7
20260831044512 18 143 0.0 6.4 0.00 2.29 0.00 94 1015.7
20260831043005 18 159 0.0 12.9 0.00 2.29 0.00 94 1015.7
20260831041510 18 129 1.6 9.7 0.00 2.29 0.00 94 1015.7
20260831040006 18 84 0.0 11.3 0.00 2.29 0.00 94 1015.8
20260831034505 18 85 0.0 8.0 0.00 2.29 2.29 94 1015.6
20260831033008 18 94 1.6 6.4 0.00 2.29 2.29 95 1015.5
20260831031505 17 143 0.0 4.8 0.00 2.29 2.29 95 1015.5
20260831030006 17 143 0.0 4.8 0.00 2.29 2.29 95 1015.4
20260831024506 17 143 0.0 3.2 0.00 2.29 2.29 95 1015.5
20260831023005 17 143 0.0 3.2 0.00 2.29 2.29 95 1015.5
20260831021506 17 159 0.0 4.8 0.00 2.29 2.29 95 1015.4
20260831020006 17 140 0.0 4.8 0.00 2.29 2.29 95 1015.4
20260831014506 17 143 0.0 4.8 0.00 2.29 2.29 95 1015.5
20260831013006 17 136 1.6 4.8 0.03 2.29 2.29 96 1015.6
20260831011505 17 138 0.0 4.8 0.05 2.29 2.29 96 1015.8
20260831010006 17 159 1.6 6.4 0.10 2.29 2.29 96 1015.8
20260831004505 18 148 0.0 4.8 0.10 2.29 2.29 96 1015.7
20260831003006 18 148 0.0 4.8 0.18 2.26 2.26 96 1015.7
20260831001506 18 148 1.6 8.0 0.15 2.24 2.24 96 1015.8
20260831000016 18 170 3.2 11.3 0.10 2.18 2.18 96 1016.1
20260830234506 18 71 0.0 8.0 0.13 2.18 2.18 96 1016.2
20260830233006 18 148 1.6 16.1 0.05 2.08 2.08 96 1016.5
20260830231507 18 191 0.0 9.7 0.05 2.08 2.08 96 1016.1
20260830230013 18 156 0.0 14.5 0.08 2.08 2.08 96 1016.5
20260830224507 19 140 1.6 4.8 0.05 2.06 2.06 97 1016.7
20260830223007 19 140 0.0 4.8 0.05 2.03 2.03 97 1016.9
20260830221506 19 140 0.0 6.4 0.05 2.03 2.03 97 1016.8
20260830220007 19 140 0.0 0.0 0.03 2.01 2.01 97 1016.5
20260830214507 19 140 0.0 1.6 0.08 2.01 2.01 97 1016.0
20260830213013 19 140 0.0 3.2 0.05 1.98 1.98 97 1015.8
20260830211507 18 140 0.0 9.7 0.05 1.98 1.98 96 1015.4
20260830210007 18 129 0.0 4.8 0.08 1.98 1.98 96 1015.3
20260830204507 18 131 1.6 19.3 0.05 1.93 1.93 97 1015.4
20260830203007 18 151 4.8 12.9 0.10 1.93 1.93 96 1015.7
20260830201507 19 107 0.0 4.8 0.18 1.93 1.93 97 1016.1
20260830200008 19 107 0.0 0.0 0.20 1.91 1.91 97 1016.3
20260830194507 18 107 0.0 3.2 0.23 1.88 1.88 96 1016.4
20260830193008 18 107 0.0 3.2 0.25 1.80 1.80 96 1016.5
20260830191507 18 107 0.0 0.0 0.28 1.75 1.75 96 1016.7
20260830190008 18 107 0.0 0.0 0.23 1.70 1.70 96 1016.8
20260830184516 18 107 0.0 1.6 0.23 1.65 1.65 96 1016.9
20260830183008 18 107 0.0 1.6 0.15 1.55 1.55 96 1016.9
20260830181508 18 107 0.0 1.6 0.08 1.45 1.45 96 1016.9
20260830180015 18 107 0.0 1.6 0.13 1.45 1.45 96 1016.9
20260830174508 18 107 0.0 3.2 0.10 1.42 1.42 96 1017.1
20260830173008 18 107 0.0 3.2 0.10 1.40 1.40 96 1017.2
20260830171508 18 107 0.0 3.2 0.20 1.37 1.37 96 1017.3
20260830170008 18 107 0.0 0.0 0.38 1.35 1.35 96 1017.6
20260830164528 18 107 0.0 3.2 0.61 1.32 1.32 96 1017.5
20260830163008 18 107 0.0 4.8 0.66 1.27 1.27 96 1017.5
20260830161507 18 155 0.0 3.2 0.69 1.17 1.17 96 1017.9
20260830160009 18 154 0.0 4.8 0.48 0.94 0.94 96 1018.2
20260830154511 18 154 0.0 3.2 0.25 0.71 0.71 96 1018.4
20260830153014 18 154 0.0 8.0 0.15 0.61 0.61 96 1018.3
20260830151508 18 153 1.6 9.7 0.08 0.46 0.46 96 1017.9
20260830150009 18 95 0.0 0.0 0.10 0.46 0.46 96 1017.7
20260830144512 18 95 0.0 3.2 0.10 0.46 0.46 96 1017.7
20260830143011 18 95 0.0 0.0 0.10 0.46 0.46 95 1017.8
20260830141508 18 95 0.0 3.2 0.05 0.38 0.38 95 1017.8
20260830140014 18 95 0.0 3.2 0.03 0.36 0.36 95 1017.8
20260830134520 18 95 0.0 3.2 0.05 0.36 0.36 95 1017.9
20260830133018 18 86 0.0 1.6 0.13 0.36 0.36 95 1018.0
20260830131513 18 86 1.6 4.8 0.20 0.33 0.33 95 1017.9
20260830130009 18 86 1.6 4.8 0.25 0.33 0.33 95 1018.0
20260830124509 18 86 0.0 3.2 0.28 0.30 0.30 94 1018.4
20260830123009 18 86 0.0 4.8 0.20 0.23 0.23 94 1018.1
20260830121509 18 86 0.0 4.8 0.10 0.13 0.13 94 1017.9
20260830120009 18 359 0.0 4.8 0.05 0.05 0.05 94 1017.9
20260830114512 18 359 0.0 3.2 0.03 0.03 0.03 94 1017.6
20260830113012 18 359 0.0 0.0 0.03 0.03 0.03 93 1017.6
20260830111509 18 359 0.0 3.2 0.03 0.03 0.03 93 1017.3
20260830110009 19 359 1.6 4.8 0.00 0.00 0.00 93 1017.1
20260830104509 19 359 0.0 3.2 0.00 0.00 0.00 93 1017.1
20260830103012 19 47 0.0 4.8 0.00 0.00 0.00 93 1017.1
20260830101509 19 47 0.0 3.2 0.00 0.00 0.00 93 1017.3
20260830100010 19 47 0.0 3.2 0.00 0.00 0.00 93 1017.4
20260830094510 19 47 0.0 0.0 0.00 0.00 0.00 92 1017.5
20260830093009 20 47 0.0 6.4 0.00 0.00 0.00 92 1017.5
20260830091511 20 331 0.0 3.2 0.00 0.00 0.00 90 1017.6
20260830090009 20 338 1.6 9.7 0.00 0.00 0.00 88 1018.0
20260830084510 20 152 1.6 4.8 0.00 0.00 0.00 87 1018.1
20260830083012 20 152 0.0 0.0 0.00 0.00 0.00 85 1017.8
20260830081515 20 152 0.0 0.0 0.00 0.00 0.00 85 1017.6
20260830080010 20 152 0.0 4.8 0.00 0.00 0.00 85 1017.4
20260830074510 19 152 0.0 3.2 0.00 0.00 0.00 84 1017.4
20260830073010 19 152 0.0 3.2 0.00 0.00 0.00 84 1017.3